Flag for Greenland Weather past 2 weeks in Nuuk, Greenland

Now
28 °F

Partly sunny.


Feels Like: 17 °F
Forecast: 26 / 34 °F
Wind: 14 mph from South

Location: Godthaab / Nuuk

Current Time: Apr 27, 2015 at 10:58:34 PM

Latest Report: Apr 27, 2015 at 9:50 PM


Visibility: N/A

Pressure: 30.45 "Hg

Humidity: 74%

Dew point: 21 °F

Location of NuukLocation

Historic Weather in Nuuk — Graph

°F

Nuuk temperature yesterday

Maximum temperature yesterday: 28 °F (at 1:50 PM)
Minimum temperature yesterday: 21 °F (at 12:50 AM)
Average temperature yesterday: 25 °F

Past Weeks' High & Low Weather Summary

 TemperatureHumidityPressure
High37 °F (Apr 14, 7:50 PM)100% (Apr 14, 7:50 AM)30.45 "Hg (Apr 14, 7:50 AM)
Low10 °F (Apr 15, 10:50 PM)52% (Apr 18, 1:50 AM)28.65 "Hg (Apr 15, 8:50 AM)
Average22 °F78%29.88 "Hg
* Reported Apr 12 9:50 PM — Apr 27 9:50 PM, Nuuk, Weather by CustomWeather, © 2015

Note: Actual official high and low records may vary slightly from our data, if they occured in-between our weather recording intervals... More about our weather records

Advertising

Nuuk weather history for previous 24 hours

 ConditionsComfort  
Time TempWeatherWind HumidityBarometerVisibility
9:50 PM
Mon, Apr 27
28 °FPartly sunny.14 mph74%30.45 "HgN/A
8:50 PM27 °FPartly sunny.10 mph86%30.45 "HgN/A
7:50 PM28 °FPartly sunny.9 mph74%30.45 "HgN/A
6:50 PM27 °FBroken clouds.7 mph86%30.45 "HgN/A
5:50 PM27 °FPartly sunny.8 mph86%30.45 "HgN/A
4:50 PM25 °FLow clouds.9 mph93%30.45 "HgN/A
3:50 PM25 °FLow clouds.10 mph93%30.45 "HgN/A
2:50 PM25 °FPartly sunny.7 mph93%30.45 "HgN/A
1:50 PM25 °FScattered showers. Partly sunny.5 mph86%30.45 "HgN/A
12:50 PM23 °FPartly sunny.3 mph93%30.42 "HgN/A
11:50 AM23 °FPartly sunny.5 mph93%30.42 "HgN/A
10:50 AM23 °FPartly sunny.6 mph93%30.42 "HgN/A
9:50 AM25 °FPartly sunny.3 mph86%30.42 "HgN/A
8:50 AM25 °FPartly sunny.6 mph86%30.39 "HgN/A
7:50 AM25 °FPartly sunny.6 mph86%30.39 "HgN/A
6:50 AM25 °FOvercast.5 mph86%30.39 "HgN/A
5:50 AM25 °FOvercast.N/A80%30.39 "HgN/A
4:50 AM23 °FPassing clouds.N/A86%30.39 "HgN/A
3:50 AM23 °FPassing clouds.N/A86%30.39 "HgN/A
2:50 AM23 °FPassing clouds.N/A86%30.39 "HgN/A
1:50 AM23 °FPassing clouds.N/A93%30.39 "HgN/A
12:50 AM23 °FPassing clouds.N/A86%30.39 "HgN/A
11:50 PM
Sun, Apr 26
23 °FPassing clouds.N/A86%30.42 "HgN/A
10:50 PM23 °FPassing clouds.N/A86%30.42 "HgN/A
Weather by CustomWeather, © 2015

See weather overviewHow to use our weather pages